Location: Sulphur Springs (historical)
(38.1246°N, 122.1900°W)
Time: 05:41:14
(UTC+00:00)

Cosmos 1992 Rocket - Pass Details

Date: 29 October 2020
Orbit: 759 x 765 km, 74.0° (Epoch: 29 November)

Event Time Altitude Azimuth Distance (km) Brightness Sun altitude
Exits shadow 12:59:09 - 336° (NNW) 2,442 6.3 -18.8°
Reaches altitude 10° 12:59:31 10° 336° (NNW) 2,298 6.2 -18.7°
Maximum altitude 13:04:41 66° 255° (WSW) 833 3.9 -17.7°
Drops below altitude 10° 13:09:49 10° 174° (S) 2,288 6.6 -16.7°
Sets 13:12:11 0° 171° (S) 3,210 7.4 -16.3°
